Home > Weather > Herne > Past weeks

Flag for Germany Past Weather in Herne, North Rhine-Westphalia, Germany — Yesterday and Last 2 Weeks

Now
63 °F

Passing clouds.


Feels Like: 63 °F
Forecast: 62 / 67 °F
Wind: 8 mph from Northeast

Location: Dortmund / Wickede

Current Time: May 29, 2016 at 11:47:20 AM

Latest Report: May 29, 2016 at 10:50 AM


Visibility: N/A

Pressure: 29.74 "Hg

Humidity: 77%

Dew Point: 55 °F

Location of HerneLocation

Past Weather in Herne — Graph

°F

Herne Temperature Yesterday

Maximum temperature yesterday: 73 °F (at 3:20 PM)
Minimum temperature yesterday: 54 °F (at 5:20 AM)
Average temperature yesterday: 66 °F

High & Low Weather Summary for the Past Weeks

 TemperatureHumidityPressure
High73 °F (May 21, 5:50 PM)94% (May 23, 6:50 PM)30.12 "Hg (May 23, 6:50 PM)
Low39 °F (May 15, 5:20 AM)37% (May 18, 1:50 PM)29.71 "Hg (May 18, 8:20 PM)
Average57 °F66%29.95 "Hg
* Reported May 14 10:20 AM — May 29 10:20 AM, Herne, Weather by CustomWeather, © 2016

Note: Actual official high and low records may vary slightly from our data, if they occured in-between our weather recording intervals... More about our weather records

Advertising

Herne Weather History for the Previous 24 Hours

Scroll right to see more
 ConditionsComfort  
Time TempWeatherWind HumidityBarometerVisibility
10:20 AM
Sun, May 29
64 °FPassing clouds.7 mph78%29.77 "HgN/A
9:50 AM63 °FPassing clouds.7 mph73%29.77 "HgN/A
9:20 AM63 °FPassing clouds.7 mph73%29.77 "HgN/A
8:50 AM61 °FSunny.8 mph83%29.77 "Hg10 mi
8:20 AM61 °FSunny.9 mph83%29.77 "Hg10 mi
7:50 AM61 °FSunny.7 mph83%29.77 "Hg10 mi
7:20 AM59 °FPassing clouds.5 mph88%29.77 "HgN/A
6:50 AM59 °FSunny.5 mph82%29.77 "Hg10 mi
6:20 AM59 °FSunny.3 mph82%29.77 "Hg10 mi
5:50 AM59 °FClear.No wind82%29.80 "Hg10 mi
5:20 AM59 °FClear.2 mph82%29.80 "Hg10 mi
9:50 PM
Sat, May 28
64 °FSunny.5 mph64%29.86 "Hg10 mi
9:20 PM66 °FSunny.3 mph64%29.86 "Hg10 mi
8:50 PM68 °FSunny.5 mph56%29.86 "Hg10 mi
7:50 PM70 °FSunny.10 mph57%29.86 "Hg10 mi
6:50 PM72 °FSunny.9 mph50%29.86 "Hg10 mi
6:20 PM72 °FSunny.7 mph50%29.86 "Hg10 mi
5:50 PM72 °FSunny.7 mph50%29.86 "Hg10 mi
5:20 PM73 °FPassing clouds.6 mph50%29.86 "HgN/A
4:50 PM73 °FSunny.5 mph47%29.86 "Hg10 mi
4:20 PM72 °FScattered clouds.5 mph47%29.89 "HgN/A
3:50 PM73 °FScattered clouds.6 mph47%29.89 "HgN/A
3:20 PM73 °FScattered clouds.5 mph50%29.89 "HgN/A
2:50 PM72 °FScattered clouds.3 mph50%29.89 "HgN/A
2:20 PM70 °FScattered clouds.3 mph53%29.92 "HgN/A
1:50 PM72 °FScattered clouds.5 mph50%29.92 "HgN/A
1:20 PM70 °FScattered clouds.5 mph53%29.92 "HgN/A
12:50 PM70 °FSunny.5 mph60%29.92 "Hg10 mi
12:20 PM70 °FPassing clouds.5 mph57%29.92 "HgN/A
11:50 AM68 °FSunny.3 mph60%29.92 "Hg10 mi
11:20 AM68 °FSunny.3 mph64%29.95 "Hg10 mi
Weather by CustomWeather, © 2016

See weather overviewHow to use our weather pages